Location: *
(45.9500°N, 9.0833°E)
Time: 05:50:04
(UTC+00:00)

SR - Pass Details

Date: 15 June 2021
Orbit: 577 x 878 km, 66.7° (Epoch: 24 July)

Event Time Altitude Azimuth Distance (km) Brightness Sun altitude
Rises 18:58:13 0° 261° (W) 3,470 ? 1.7°
Reaches altitude 10° 19:01:23 10° 278° (W) 2,532 ? 1.3°
Maximum altitude 19:05:43 21° 325° (NW) 1,873 ? 0.7°
Drops below altitude 10° 19:09:57 10° 13° (NNE) 2,477 ? 0.0°
Sets 19:13:02 0° 29° (NNE) 3,372 ? -0.4°
